This demonstration page uses our WeatherBlox Daily Observations layout. Learn more.

Left ArrowRight Arrow

39.01783, -85.05884

Hourly Observations for October 25, 2019

Temp ( °F °C ) Dew Point ( °F °C ) Humidity (%) Winds ( mph kmh ) Pressure ( in mb ) Visibility ( mi km ) Precip ( " mm )
12:52 am 00:52 Cloudy 53 11.7 44 6.7 72 72 N 7 11 30.25 1025 10 16 0.00 0.00
1:52 am 01:52 Cloudy 53 11.7 44 6.7 72 72 NNW 5 7 30.27 1025 10 16 0.00 0.00
2:52 am 02:52 Cloudy 53 11.7 44 6.7 72 72 NNE 6 9 30.24 1024 10 16 0.00 0.00
3:52 am 03:52 Cloudy 53 11.7 44 6.7 72 72 ENE 7 11 30.24 1024 10 16 0.00 0.00
4:52 am 04:52 Cloudy 52 11.1 44 6.7 75 75 N 7 11 30.25 1024 10 16 0.00 0.00
5:52 am 05:52 Cloudy 51 10.6 44 6.7 77 77 N 6 9 30.26 1025 10 16 0.00 0.00
6:52 am 06:52 Cloudy 53 11.7 43 6.1 69 69 N 6 9 30.26 1025 10 16 0.00 0.00
7:52 am 07:52 Cloudy 51 10.6 43 6.1 74 74 N 3 6 30.27 1025 10 16 0.00 0.00
8:52 am 08:52 Cloudy 52 11.1 43 6.1 72 72 NE 6 9 30.28 1025 10 16 0.00 0.00
9:52 am 09:52 Cloudy 53 11.7 44 6.7 72 72 ENE 7 11 30.27 1025 10 16 0.00 0.00
10:52 am 10:52 Cloudy 54 12.2 44 6.7 69 69 E 3 6 30.27 1025 10 16 0.00 0.00
11:52 am 11:52 Cloudy 56 13.3 44 6.7 65 65 Calm 30.27 1025 10 16 0.00 0.00
12:52 pm 12:52 Cloudy 57 13.9 45 7.2 64 64 N 3 6 30.25 1025 10 16 0.00 0.00
1:52 pm 13:52 Cloudy 58 14.4 46 7.8 65 65 NW 3 6 30.23 1024 10 16 0.00 0.00
2:52 pm 14:52 Cloudy 60 15.6 46 7.8 60 60 NNW 5 7 30.22 1023 10 16 0.00 0.00
3:52 pm 15:52 Cloudy 60 15.6 46 7.8 60 60 Calm 30.19 1023 10 16 0.00 0.00
4:52 pm 16:52 Cloudy 60 15.6 47 8.3 62 62 N 6 9 30.19 1023 10 16 0.00 0.00
5:52 pm 17:52 Cloudy 59 15 46 7.8 62 62 NNE 3 6 30.19 1023 10 16 0.00 0.00
6:52 pm 18:52 Cloudy 57 13.9 46 7.8 67 67 NNW 6 9 30.21 1023 10 16 0.00 0.00
8:52 pm 20:52 Cloudy 56 13.3 46 7.8 70 70 N 8 13 30.20 1023 10 16 0.00 0.00
9:52 pm 21:52 Cloudy 56 13.3 46 7.8 70 70 NE 6 9 30.19 1022 10 16 0.00 0.00
10:52 pm 22:52 Cloudy 55 12.8 46 7.8 72 72 ENE 6 9 30.18 1022 10 16 0.00 0.00
11:52 pm 23:52 Cloudy 55 12.8 47 8.3 74 74 NE 6 9 30.18 1022 10 16 0.00 0.00

Powered by AerisWeather